This demonstration page uses our WeatherBlox Daily Observations layout. Learn more.

Left ArrowRight Arrow

44.8408, -93.29828

Hourly Observations for August 17, 2017

Temp ( °F °C ) Dew Point ( °F °C ) Humidity (%) Winds ( mph kmh ) Pressure ( in mb ) Visibility ( mi km ) Precip ( " mm )
12:53 am 00:53 Cloudy 72 22.2 67 19.4 84 84 S 14 22 29.53 1000 10 16 0.00 0.00
1:53 am 01:53 Cloudy 69 20.6 66 18.9 90 90 SSE 15 24 29.51 999 9 14 0.00 0.00
2:53 am 02:53 Cloudy with Light Rain 68 20 65 18.3 90 90 S 15 24 29.49 999 4 6 0.02 0.51
3:53 am 03:53 Cloudy 67 19.4 64 17.8 91 91 SSE 9 15 29.47 998 10 16 0.00 0.03
4:53 am 04:53 Cloudy with Light Rain 67 19.4 64 17.8 91 91 ESE 12 19 29.46 998 9 14 0.04 1.02
5:53 am 05:53 Cloudy with Light Rain 67 19.4 64 17.8 91 91 ENE 8 13 29.46 998 10 16 0.02 0.51
6:06 am 06:06 Cloudy 67 19.4 64 17.8 91 91 NE 7 11 29.44 997 10 16 0.00 0.03
6:51 am 06:51 Mostly Cloudy 66 19 64 18 94 94 N 9 15 29.47 998 10 16 0.00 0.03
6:53 am 06:53 Mostly Cloudy 66 18.9 64 17.8 93 93 N 9 15 29.47 998 10 16 0.00 0.03
7:10 am 07:10 Mostly Cloudy 67 19.4 64 17.8 91 91 NNW 7 11 29.47 998 10 16 0.00 0.00
7:42 am 07:42 Cloudy 67 19.4 65 18.3 93 93 NW 9 15 29.50 999 10 16 0.00 0.00
7:53 am 07:53 Cloudy 67 19.4 64 17.8 91 91 NNW 10 17 29.52 1000 10 16 0.00 0.00
8:07 am 08:07 Cloudy 67 19.4 65 18.3 93 93 NNW 10 17 29.50 999 10 16 0.00 0.00
8:14 am 08:14 Cloudy 68 20 65 18.3 90 90 NW 10 17 29.50 999 10 16 0.00 0.00
8:33 am 08:33 Cloudy 68 20 65 18.3 90 90 NNW 12 19 29.53 1000 10 16 0.00 0.00
8:43 am 08:43 Cloudy 68 20 65 18.3 90 90 NW 12 19 29.53 1000 10 16 0.00 0.00
8:53 am 08:53 Cloudy 68 20 65 18.3 90 90 NNW 12 19 29.54 1000 10 16 0.00 0.00
9:03 am 09:03 Cloudy 68 20 65 18.3 90 90 NNW 10 17 29.53 1000 10 16 0.00 0.00
9:18 am 09:18 Cloudy 68 20 65 18.3 90 90 NW 10 17 29.53 1000 10 16 0.00 0.00
9:30 am 09:30 Cloudy with Light Rain 68 20 65 18.3 90 90 NW 18 30 29.53 1000 10 16 0.00 0.03
9:53 am 09:53 Cloudy with Light Rain 67 19.4 64 17.8 91 91 NW 15 24 29.57 1001 10 16 0.00 0.03
10:41 am 10:41 Cloudy 67 19.4 63 17.2 87 87 NW 17 28 29.59 1002 10 16 0.00 0.03
10:53 am 10:53 Cloudy 66 18.9 62 16.7 87 87 NW 20 31 29.61 1003 10 16 0.00 0.03
11:53 am 11:53 Cloudy 66 18.9 61 16.1 84 84 NW 20 31 29.65 1004 10 16 0.00 0.00
12:00 pm 12:00 Cloudy 66 18.9 60 15.6 81 81 NW 18 30 29.65 1004 10 16 0.00 0.00
12:53 pm 12:53 Cloudy 65 18.3 60 15.6 84 84 NW 18 30 29.69 1005 10 16 0.00 0.03
1:00 pm 13:00 Cloudy 66 18.9 60 15.6 81 81 NW 16 26 29.71 1006 10 16 0.00 0.00
1:08 pm 13:08 Cloudy 66 18.9 60 15.6 81 81 NW 17 28 29.71 1006 10 16 0.00 0.00
1:20 pm 13:20 Cloudy 68 20 60 15.6 76 76 NW 22 35 29.68 1005 10 16 0.00 0.00
1:28 pm 13:28 Cloudy 68 20 60 15.6 76 76 NW 17 28 29.68 1005 10 16 0.00 0.00
1:53 pm 13:53 Cloudy 70 21.1 60 15.6 71 71 NW 17 28 29.69 1006 10 16 0.00 0.00
2:41 pm 14:41 Cloudy 73 22.8 62 16.7 69 69 NNW 20 31 29.68 1005 10 16 0.00 0.00
2:53 pm 14:53 Cloudy 72 22.2 61 16.1 68 68 NW 18 30 29.71 1006 10 16 0.00 0.00
3:53 pm 15:53 Cloudy 73 22.8 62 16.7 69 69 NW 21 33 29.72 1007 10 16 0.00 0.00
4:53 pm 16:53 Cloudy 73 22.8 62 16.7 69 69 NW 20 31 29.74 1007 10 16 0.00 0.00
5:53 pm 17:53 Cloudy 72 22.2 61 16.1 68 68 NW 16 26 29.76 1008 10 16 0.00 0.00
6:53 pm 18:53 Mostly Cloudy 72 22.2 61 16.1 68 68 NW 20 31 29.78 1008 10 16 0.00 0.00
7:53 pm 19:53 Mostly Cloudy 71 21.7 60 15.6 68 68 NW 8 13 29.79 1009 10 16 0.00 0.00
8:53 pm 20:53 Mostly Cloudy 71 21.7 59 15 66 66 NW 15 24 29.80 1009 10 16 0.00 0.00
9:53 pm 21:53 Mostly Clear 69 20.6 59 15 70 70 NNW 10 17 29.83 1010 10 16 0.00 0.00
10:53 pm 22:53 Mostly Clear 66 18.9 58 14.4 75 75 NW 7 11 29.83 1010 10 16 0.00 0.00
11:53 pm 23:53 Clear 64 17.8 58 14.4 81 81 WNW 5 7 29.84 1010 10 16 0.00 0.00

Powered by AerisWeather